Location: Newark
(43.6583°N, 1.6617°E)
Time: 09:39:13
(UTC+00:00)

Tiros 1 - Pass Details

Date: 29 August 2019
Orbit: 630 x 664 km, 48.4° (Epoch: 21 October)

Event Time Altitude Azimuth Distance (km) Brightness Sun altitude
Exits shadow 04:04:11 17° 263° (W) 1,609 8.6 -12.5°
Maximum altitude 04:06:31 25° 222° (SW) 1,291 8.2 -12.1°
Drops below altitude 10° 04:10:20 10° 167° (SSE) 2,032 9.6 -11.5°
Sets 04:13:00 0° 154° (SSE) 2,945 10.6 -11.1°
